Regional Weather Roundup
Issued by NWS

Home | Current Version | Previous Version | Text Only | Print | Product List | Glossary Off
Versions: 1 2 3 4 5 6 7 8 9 10 11 12 13 14 15 16 17 18 19 20 21 22 23 24 25 26 27 28 29 30 31 32 33 34 35 36 37 38 39 40 41 42 43 44 45 46 47 48 49 50

000
ASUS43 KFSD 270502
RWRSD

WEATHER ROUNDUP FOR SOUTH DAKOTA
NATIONAL WEATHER SERVICE SIOUX FALLS SD
1200 AM CDT WED JUL 27 2016

NOTE: "FAIR" INDICATES FEW OR NO CLOUDS BELOW 12,000 FEET WITH NO
SIGNIFICANT WEATHER AND/OR OBSTRUCTIONS TO VISIBILITY.


SDZ001>005-009-010-012>017-270600-
NORTHWEST AND NORTH CENTRAL SOUTH DAKOTA

CITY           SKY/WX    TMP DP  RH WIND       PRES   REMARKS
BUFFALO          N/A     65  61  87 E10       30.04R
FAITH            N/A     68  62  81 NE10      30.05R
MOBRIDGE       CLOUDY    71  64  78 N10       29.96F
$$

SDZ012>016-024>037-041>051-057-063-072>074-270600-
SOUTHWEST AND SOUTH CENTRAL SOUTH DAKOTA

CITY           SKY/WX    TMP DP  RH WIND       PRES   REMARKS
RAPID CTY ARPT CLOUDY    70  58  65 NE8       30.07R
PIERRE         CLOUDY    70  63  78 W7        29.94S
CUSTER         CLOUDY    63  53  70 NE10      30.21R
ELLSWORTH AFB  CLOUDY    73  58  59 N2        30.08R
PHILIP         CLOUDY    70  63  78 NW3       29.98S
PINE RIDGE     CLOUDY    63  61  93 CALM      30.05R
WINNER         LGT RAIN  69  61  75 SW21G31   29.99R
$$

SDZ004>011-016>023-039-040-270600-
NORTHEAST SOUTH DAKOTA

CITY           SKY/WX    TMP DP  RH WIND       PRES   REMARKS
ABERDEEN       CLOUDY    70  64  81 NE8       29.94F
WATERTOWN      CLOUDY    72  64  76 E8        29.97F
BROOKINGS      MOCLDY    72  68  87 SE8       29.97F
SISSETON         N/A     68  65  90 NW8       29.97F
$$

SDZ017-020-022-023-036>040-048>070-270600-
SOUTHEAST SOUTH DAKOTA

CITY           SKY/WX    TMP DP  RH WIND       PRES   REMARKS
SIOUX FALLS    CLOUDY    76  64  66 S12       29.97F
HURON          CLOUDY    77  66  68 SE10      29.92R
CHAMBERLAIN    CLOUDY    71  64  78 NW5       29.95R
MITCHELL       MOCLDY    80  66  62 VRB5      29.94R
YANKTON        CLOUDY    75  64  69 S7        29.98S
$$

ABBREVIATIONS USED IN REMARKS
   TC - TEMPERATURE IN CELSIUS
  WCI - WIND CHILL INDEX
   HX - HEAT INDEX
  VSB - VISIBILITY




USA.gov is the U.S. government's official web portal to all federal, state and local government web resources and services.